Volver al catálogo

HELLAS-SAT 3

ActivoComunicacionesGEO
NORAD 42814·PAYLOAD·🇪🇺 EU

Lanzado Jun 28, 2017 desde Guiana Space Centre

Loading…

TLE

ActualizadoSource: Space-Track

Época: Sep 14, 2026, 13:59 UTC

1 42814U 17040A   26257.58290104  .00000144  00000-0  00000-0 0  9991
2 42814   0.0758  53.4059 0001949  60.0978 128.9147  1.00274669 33700

Sigue HELLAS-SAT 3 en tiempo real con AllMySat

Download on the App Store